Stations météo

Publicité
Bezier-Vias, France (7638): Température de l'air & dewpoint: 20.06.2017 17:00:00 - 26.06.2017 17:00:00 (CEST)Bezier-Vias, France (7638): Vitesse du vent & gusts: 20.06.2017 17:00:00 - 26.06.2017 17:00:00 (CEST)Bezier-Vias, France (7638): Direction du vent: 20.06.2017 17:00:00 - 26.06.2017 17:00:00 (CEST)Bezier-Vias, France (7638): reduced air pressure: 20.06.2017 17:00:00 - 26.06.2017 17:00:00 (CEST)Bezier-Vias, France (7638): visibility: 20.06.2017 17:00:00 - 26.06.2017 17:00:00 (CEST)Bezier-Vias, France (7638): Quantités de précipitations: 20.06.2017 17:00:00 - 26.06.2017 17:00:00 (CEST)
Date & Time tt [°C] td [°C] ff [km/h] ff [knt] fx [km/h] fx [knt] dd ppp [hPa] vv [km] rr [mm]
26.06.2017 17:00:00 24,0 22,1 19 10 29 16 E 1011,0 8 0,2
26.06.2017 16:00:00 23,8 21,9 18 10 31 17 ENE 1011,1 10 0,6
26.06.2017 15:00:00 25,3 18,5 21 11 29 15 NE 1011,1 38 0,2
26.06.2017 14:00:00 25,6 16,7 8 4 39 21 NNE 1012,5 40 -
26.06.2017 13:00:00 26,5 14,3 26 14 35 19 E 1011,1 49 0,0
26.06.2017 12:00:00 26,7 12,7 26 14 36 19 E 1011,3 45 0,0
26.06.2017 11:00:00 25,8 14,3 9 5 17 9 E 1012,2 47 0,0
26.06.2017 10:00:00 25,0 15,0 11 6 25 13 ENE 1011,5 46 0,0
26.06.2017 09:00:00 25,3 13,8 7 4 14 8 ENE 1012,3 35 0,0
26.06.2017 08:00:00 23,1 16,9 5 3 9 5 WNW 1012,7 19 0,0
26.06.2017 07:00:00 20,9 14,5 2 1 7 4 E 1011,2 45 0,0
26.06.2017 06:00:00 20,8 14,0 3 2 9 5 NW 1011,7 53 0,0
26.06.2017 05:00:00 21,2 14,1 5 3 9 5 WSW 1012,0 57 0,0
26.06.2017 04:00:00 22,7 13,7 6 3 11 6 ENE 1011,8 58 0,0
26.06.2017 03:00:00 22,6 13,9 2 1 11 6 E 1012,5 60 0,0
26.06.2017 02:00:00 23,0 12,3 4 2 10 6 N 1013,2 60 0,0
26.06.2017 01:00:00 23,9 10,6 9 5 16 9 N 1013,2 60 0,0
26.06.2017 00:00:00 25,6 11,7 5 3 14 8 NW 1013,2 60 0,0
25.06.2017 23:00:00 25,8 13,0 6 4 22 12 WNW 1013,2 60 0,0
25.06.2017 22:00:00 25,1 17,0 9 5 15 8 SSW 1013,2 41 0,0
25.06.2017 21:00:00 27,0 16,3 9 5 28 15 SSW 1013,0 44 0,0
25.06.2017 20:00:00 28,4 16,0 19 10 32 18 SSW 1012,9 26 0,0
25.06.2017 19:00:00 32,7 12,9 19 11 34 18 W 1012,6 26 0,0
25.06.2017 18:00:00 33,4 12,4 20 11 36 19 WSW 1012,8 31 0,0
25.06.2017 17:00:00 34,0 7,9 12 6 30 16 NW 1013,6 36 0,0
25.06.2017 16:00:00 33,5 8,9 8 4 33 18 WNW 1014,2 37 0,0
25.06.2017 15:00:00 32,1 10,7 16 9 30 16 NW 1015,0 39 0,0
25.06.2017 14:00:00 30,9 12,8 12 7 30 16 N 1015,8 46 0,0
25.06.2017 13:00:00 29,6 12,5 13 7 36 19 W 1016,7 40 0,0
25.06.2017 12:00:00 28,5 13,2 13 7 32 17 W 1017,2 47 0,0
25.06.2017 11:00:00 26,3 13,4 8 5 22 12 NW 1017,3 48 0,0
25.06.2017 10:00:00 24,8 14,0 9 5 19 11 WSW 1017,8 60 0,0
25.06.2017 09:00:00 23,4 14,4 3 2 10 5 SW 1017,5 38 0,0
25.06.2017 08:00:00 21,0 15,5 3 1 16 9 E 1017,4 42 0,0
25.06.2017 07:00:00 20,2 16,0 6 3 12 6 W 1017,1 33 0,0
25.06.2017 06:00:00 21,0 14,4 13 7 38 21 NW 1017,2 52 0,0
25.06.2017 05:00:00 22,4 13,2 16 8 32 17 N 1016,7 58 0,0
25.06.2017 04:00:00 22,1 13,7 9 5 23 12 NW 1017,7 57 0,0
25.06.2017 03:00:00 22,6 13,6 16 9 29 16 WNW 1017,4 60 0,0
25.06.2017 02:00:00 22,8 13,8 16 9 31 17 W 1017,3 60 0,0
25.06.2017 01:00:00 23,6 14,0 23 13 37 20 W 1017,0 60 0,0
25.06.2017 00:00:00 24,7 14,5 17 9 35 19 WNW 1016,9 60 0,0
24.06.2017 23:00:00 25,9 14,7 18 10 40 22 WNW 1016,7 60 0,0
24.06.2017 22:00:00 26,8 15,5 26 14 47 26 WNW 1015,8 60 0,0
24.06.2017 21:00:00 28,5 16,1 25 14 45 24 W 1014,8 48 0,0
24.06.2017 20:00:00 30,1 16,5 26 14 44 24 W 1014,3 21 0,0
24.06.2017 19:00:00 32,0 17,5 24 13 44 24 W 1013,9 19 0,0
24.06.2017 18:00:00 29,3 19,6 29 16 43 23 SSW 1014,4 19 0,0
24.06.2017 17:00:00 33,5 16,8 23 12 40 21 SW 1014,7 20 0,0
24.06.2017 16:00:00 34,0 17,3 19 10 40 21 W 1015,0 22 0,0
24.06.2017 15:00:00 33,6 16,5 14 8 31 17 SW 1015,6 20 0,0
24.06.2017 14:00:00 32,7 16,5 13 7 28 15 WSW 1016,3 24 0,0
24.06.2017 13:00:00 32,1 16,8 13 7 25 13 WSW 1017,0 24 0,0
24.06.2017 12:00:00 30,7 16,7 11 6 24 13 SW 1017,3 20 0,0
24.06.2017 11:00:00 29,0 16,5 10 5 24 13 NW 1017,5 15 0,0
24.06.2017 10:00:00 28,0 17,2 14 8 34 18 WNW 1018,1 43 0,0
24.06.2017 09:00:00 26,3 17,4 16 8 23 13 WNW 1018,7 40 0,0
24.06.2017 08:00:00 24,7 17,4 14 8 23 13 W 1018,9 36 0,0
24.06.2017 07:00:00 22,4 17,3 11 6 15 8 WNW 1018,8 37 0,0
24.06.2017 06:00:00 21,4 16,8 10 5 19 11 WNW 1018,8 44 0,0
24.06.2017 05:00:00 22,2 17,3 14 8 22 12 W 1018,8 51 0,0
24.06.2017 04:00:00 22,3 17,7 15 8 25 14 W 1018,8 57 0,0
24.06.2017 03:00:00 22,8 17,9 16 9 30 16 W 1018,9 60 0,0
24.06.2017 02:00:00 23,6 18,0 21 12 39 21 W 1018,9 60 0,0
24.06.2017 01:00:00 24,1 18,1 23 12 40 21 W 1018,8 60 0,0
24.06.2017 00:00:00 24,3 18,0 26 14 43 23 W 1018,9 51 0,0
23.06.2017 23:00:00 25,0 18,0 18 10 32 17 W 1018,7 52 0,0
23.06.2017 22:00:00 25,9 18,1 19 10 45 24 W 1018,0 49 0,0
23.06.2017 21:00:00 27,1 18,1 27 15 49 27 W 1017,7 36 0,0
23.06.2017 20:00:00 29,2 18,3 27 15 51 28 W 1017,2 22 0,0
23.06.2017 19:00:00 31,3 18,6 28 15 46 25 W 1016,9 18 0,0
23.06.2017 18:00:00 32,8 19,3 26 14 41 22 W 1017,0 18 0,0
23.06.2017 17:00:00 33,7 19,0 22 12 42 23 W 1017,2 20 0,0
23.06.2017 16:00:00 34,5 18,9 22 12 37 20 WSW 1017,5 19 0,0
23.06.2017 15:00:00 34,1 19,0 19 11 33 18 W 1018,0 25 0,0
23.06.2017 14:00:00 33,3 19,4 18 10 35 19 W 1018,3 30 0,0
23.06.2017 13:00:00 32,4 19,6 16 9 33 18 W 1018,6 29 0,0
23.06.2017 12:00:00 31,4 20,0 18 10 31 17 W 1019,0 25 0,0
23.06.2017 11:00:00 29,5 19,8 17 9 30 16 W 1019,3 19 0,0
23.06.2017 10:00:00 27,6 19,4 19 10 29 15 W 1019,6 19 0,0
23.06.2017 09:00:00 25,9 19,3 18 10 29 16 W 1019,4 20 0,0
23.06.2017 08:00:00 23,9 19,0 15 8 25 13 WNW 1019,2 21 0,0
23.06.2017 07:00:00 22,1 18,9 13 7 24 13 W 1018,6 16 0,0
23.06.2017 06:00:00 21,8 19,2 11 6 23 13 WNW 1018,4 14 0,0
23.06.2017 05:00:00 22,5 21,0 5 3 10 5 WSW 1018,0 5 0,0
23.06.2017 04:00:00 23,1 21,4 5 3 11 6 W 1018,2 7 0,0
23.06.2017 03:00:00 23,0 21,4 9 5 24 13 WNW 1018,2 7 0,0
23.06.2017 02:00:00 22,9 21,5 4 2 9 5 NE 1018,2 7 0,0
23.06.2017 01:00:00 22,5 21,0 6 3 9 5 NE 1018,2 7 0,0
23.06.2017 00:00:00 22,8 20,9 5 3 9 5 ENE 1017,8 10 0,0
22.06.2017 23:00:00 23,4 21,3 8 4 10 5 ENE 1017,7 11 0,0
22.06.2017 22:00:00 24,0 21,5 4 2 10 5 SSE 1017,5 13 0,0
22.06.2017 21:00:00 24,7 21,6 8 4 16 9 S 1017,1 16 0,0
22.06.2017 20:00:00 24,9 21,6 11 6 22 12 S 1017,2 17 0,0
22.06.2017 19:00:00 26,3 20,6 9 5 19 11 SSE 1017,0 20 0,0
22.06.2017 18:00:00 26,7 21,0 11 6 22 12 S 1017,2 10 0,0
22.06.2017 17:00:00 27,1 21,4 10 5 22 12 S 1017,6 9 0,0
22.06.2017 16:00:00 25,1 21,2 13 7 25 13 S 1017,8 19 0,0
22.06.2017 15:00:00 26,3 20,8 13 7 29 16 SSE 1017,9 20 0,0
22.06.2017 14:00:00 29,2 20,6 15 8 30 16 SE 1017,7 15 0,0
22.06.2017 13:00:00 28,4 20,2 14 7 24 13 E 1018,2 13 0,0
22.06.2017 12:00:00 27,0 20,6 11 6 22 12 E 1018,5 13 0,0
22.06.2017 11:00:00 25,0 20,3 10 5 21 12 ENE 1018,5 14 0,0
22.06.2017 10:00:00 24,3 20,2 12 6 23 13 ENE 1018,4 16 0,0
22.06.2017 09:00:00 23,4 20,3 12 6 20 11 E 1018,1 12 0,0
22.06.2017 08:00:00 22,8 20,5 8 5 14 8 ENE 1017,6 8 0,0
22.06.2017 07:00:00 22,5 20,6 9 5 17 9 ENE 1017,3 7 0,0
22.06.2017 06:00:00 22,7 20,8 6 4 11 6 E 1016,9 7 0,0
22.06.2017 05:00:00 22,5 20,8 5 3 14 7 NE 1016,5 7 0,0
22.06.2017 04:00:00 22,5 20,8 6 3 13 7 ENE 1016,8 7 0,0
22.06.2017 03:00:00 22,4 20,7 7 4 12 7 NE 1016,8 8 0,0
22.06.2017 02:00:00 22,4 20,5 4 2 6 4 NNE 1016,9 11 0,0
22.06.2017 01:00:00 21,9 19,8 2 1 8 5 W 1017,0 10 0,0
22.06.2017 00:00:00 22,5 20,2 0 0 10 5 N 1016,9 11 0,0
21.06.2017 23:00:00 23,0 20,5 7 4 10 5 ESE 1016,9 12 0,0
21.06.2017 22:00:00 23,5 20,6 5 3 14 8 ENE 1016,5 13 0,0
21.06.2017 21:00:00 23,9 20,6 8 4 17 9 SE 1016,1 15 0,0
21.06.2017 20:00:00 24,3 20,4 11 6 23 12 SSE 1015,8 17 0,0
21.06.2017 19:00:00 25,7 20,5 11 6 21 11 SSE 1015,2 19 0,0
21.06.2017 18:00:00 26,9 20,7 11 6 23 12 SSE 1015,1 20 0,0
21.06.2017 17:00:00 26,1 20,4 11 6 29 15 S 1015,4 19 0,0
21.06.2017 16:00:00 27,0 20,6 14 7 26 14 SSE 1015,3 21 0,0
21.06.2017 15:00:00 27,3 20,9 16 9 29 16 S 1015,6 19 0,0
21.06.2017 14:00:00 27,6 20,4 17 9 28 15 SSE 1016,1 19 0,0
21.06.2017 13:00:00 27,7 20,5 17 9 26 14 S 1016,6 20 0,0
21.06.2017 12:00:00 27,0 20,3 15 8 25 13 S 1016,8 19 0,0
21.06.2017 11:00:00 27,0 19,9 7 4 22 12 ENE 1016,7 13 0,0
21.06.2017 10:00:00 24,8 19,6 7 4 16 9 ENE 1016,7 19 0,0
21.06.2017 09:00:00 23,6 19,3 8 5 20 11 NE 1016,7 20 0,0
21.06.2017 08:00:00 23,1 19,7 11 6 18 10 NNE 1016,2 18 0,0
21.06.2017 07:00:00 22,5 19,5 9 5 13 7 N 1016,2 17 0,0
21.06.2017 06:00:00 22,1 19,6 7 4 15 8 N 1016,0 15 0,0
21.06.2017 05:00:00 21,8 19,9 13 7 19 11 N 1015,9 12 0,0
21.06.2017 04:00:00 21,4 19,7 7 4 14 8 N 1016,1 10 0,0
21.06.2017 03:00:00 21,5 20,0 9 5 14 7 N 1016,4 9 0,0
21.06.2017 02:00:00 21,5 19,8 8 5 12 7 N 1016,9 9 0,0
21.06.2017 01:00:00 22,3 20,2 8 4 9 5 N 1017,5 12 0,0
21.06.2017 00:00:00 22,9 20,4 4 2 13 7 ENE 1017,5 14 0,0
20.06.2017 23:00:00 22,4 20,3 8 4 14 7 ENE 1017,1 12 0,0
20.06.2017 22:00:00 23,0 20,5 9 5 12 7 E 1016,9 15 0,0
20.06.2017 21:00:00 23,4 20,7 7 4 20 11 SE 1017,1 16 0,0
20.06.2017 20:00:00 24,2 20,5 11 6 21 12 SE 1017,0 20 0,0
20.06.2017 19:00:00 25,5 20,1 13 7 23 12 SSE 1016,9 30 0,0
20.06.2017 18:00:00 26,6 20,4 15 8 24 13 SE 1017,2 32 0,0
20.06.2017 17:00:00 27,2 20,3 14 7 31 17 SE 1017,6 34 0,0

tt = Température de l'air
td = dewpoint
ff = Vitesse du vent
fx = gusts
dd = Direction du vent
ppp = reduced air pressure
vv = visibility
rr = Quantités de précipitations

stations d'obs. à proximité